Location: Amsterdam
(30.7274°N, 84.4357°W)
Time: 07:17:55
(UTC+00:00)

Transit 2A Rocket - Pass Details

Date: 16 February 2026
Orbit: 583 x 900 km, 66.7° (Epoch: 8 March)

Event Time Altitude Azimuth Distance (km) Brightness Sun altitude
Rises 21:44:20 0° 215° (SW) 3,420 9.5 19.7°
Reaches altitude 10° 21:46:48 10° 219° (SW) 2,516 9.1 19.2°
Maximum altitude 21:52:35 57° 298° (WNW) 1,050 6.3 18.1°
Drops below altitude 10° 21:58:31 10° 16° (NNE) 2,574 7.4 17.0°
Sets 22:01:05 0° 20° (NNE) 3,505 8.0 16.5°
